Погода в Маразе

Погода в Маразе : погода сейчас, прогноз погоды и архив. Всё, что Вы хотите узнать о погоде в Маразе!

Поиск расширенной информации на нашем сайте:

Другие новости

Новости СМИ2

Главная страница сайта

Новости сайта

02.10.2013

Напоминаем, что на нашем новом сайте вы можете получить высокодетализированные прогнозы погоды по пунктам России, СНГ и мира (включающие важные для авиации метеовеличины, такие как направление и скорость ветра, видимость, явления погоды, количество и форма облачности, нижняя и верхняя граница облачности), а также ознакомиться с разнообразными материалами по авиационной метеорологии и подборкой полезных ссылок на эту тему.

Сайт Метеоцентр.Азия посвящён разработке технологий оптимизации авиаметеорологического обслуживания, включая проектирование и перспективное создание нескольких автоматизированных авиаметеорологических систем:
- система выпуска высокодетальных прогностических карт явлений погоды для нижнего воздушного пространства по России и ближнему зарубежью;
- система верификации прогнозов TAF (выпускаемых синоптиками официальных АМСГ РФ и ближнего зарубежья) и AUTOTAF (выпускаемых сайтом Метеоцентр.Азия) - выявление ошибок, онлайн-сопоставление с фактической погодой METAR, автоматическое внесение коррективов в прогнозы при резком отклонении фактической погоды от прогноза, подсчёт оправдываемости прогнозов по элементам и в целом;
- система обработки, анализа и отображения авиаметеорологической информации для применения провайдерами метеорологической информации.

Рекомендуем: Детальное описание искусственный снег состав на сайте.

Погода в Маразе - сегодня

Время (UTC), дата Ветер
(°,м/с) 
Видим.   Явления Облачность Т
(°С)
Тd
(°С)
f(%) Тe
(°С)
Pmin
(гПа)
dP
(гПа)
Po
(мм)
O2
(г/м3)
Тmin Tmax R s Состояние
почвы
12 25.02.17 220 (ЮЗ) 20000 м    ясно 
+13.7 +0 39 +12  1018.5  -1.2  699  268           
15 25.02.17 200 (Ю) 20000 м    ясно 
+9.8 -2.2 43 +7  1017.1  -2.4  697  271           
18 25.02.17 190 (Ю) 10 км    ясно 
+7.1 -1.7 53 +6  1018.9  0.9  698  274    +14.4       
21 25.02.17 300 (СЗ) 10 км    ясно 
+3.9 -0.7 72 +3  1019  -0.9  697  277           
00 26.02.17 270 (З) 10 км    ясно 
+4.2 -1.9 64 +1  1016.2  -2.6  695  276           
03 26.02.17 300 (СЗ) 10 км    ясно 
+4.4 -3 59 +2  1013.4  -2.4  693  275           
06 26.02.17 280 (З) 20000 м    ясно 
+9.6 -2.2 44 +9  1014.5  2.6  695  271           
09 26.02.17 160 (Ю) 20000 м    6/0 верхняя 
[Ci sp]
+14.7 -1.9 32 +16  1013.9  0.8  696  266           
12 26.02.17 360 (С) 20000 м    9/9 600 м 
[Frnb]
+8.6 -0.7 52 +7  1017.1  1.3  697  272           
15 26.02.17 360 (С) 20000 м    8/0 верхняя 
[Ci sp]
+1.6 -3.5 69 -1  1021.5  1.8  698  280           
18 26.02.17 360 (С) 10 км    8/0 верхняя 
[Ci sp]
+1.1 -3.4 72 -1  1024.2  2.3  700  281    +15.4       
21 26.02.17 100 (В) 10 км    10/10 600 м 
[Frnb]
+1.3 -1.9 79 +2  1025.5  1.3  701  281           
00 27.02.17 тихо ()   10 км    10/10 600 м 
[Frnb]
+0.8 -2.5 79 +1  1027.5  1.6  702  282           
03 27.02.17 200 (Ю) 10 км    10/10 600 м 
[Frnb]
-1.4 -2.9 89 -2  1029  0.7  703  285           
06 27.02.17 270 (З) 20000 м    10/10 600 м 
[Sc]
+0.6 -1.1 88 1030.1  1.7  704  283           
09 27.02.17 200 (Ю) 20000 м    9/6 600 м верхняя 
[Frnb|Ci sp]
+2.5 -0.2 82 1028.8  -0.7  703  281           
12 27.02.17 220 (ЮЗ) 20000 м    8/3 600 м верхняя 
[Frnb|Ci sp]
+3.6 +1 83 1024.6  -3.4  701  278           
15 27.02.17 210 (ЮЗ) 20000 м    6/4 600 м верхняя 
[Frnb|Ci sp]
+1.1 -1.5 83 -2  1025  -0.4  701  281           
18 27.02.17 250 (З) 10 км    4/4 600 м 
[Frnb]
-0.6 -2.7 86 -3  1025.5  -0.2  700  283    +4.1       
21 27.02.17 270 (З) 10 км    4/4 600 м 
[Frnb]
-2.5 -5.2 82 -5  1024.3  -1.7  699  285           
00 28.02.17 280 (З) 10 км    ясно 
-2.3 -5 82 -5  1025.1  0.8  700  285           
03 28.02.17 140 (ЮВ) 10 км    3/0 верхняя 
[Ci sp]
-2.7 -5.4 82 -2  1025.9  0.6  700  285           
06 28.02.17 110 (В) 20000 м    3/0 верхняя 
[Ci sp]
+5.2 -3.4 54 +6  1024.1  0.9  701  277           
09 28.02.17 270 (З) 20000 м    3/0 верхняя 
[Ci sp]
+7.8 -3.8 44 +9  1024.2  0.5  701  275           
12 28.02.17 180 (Ю) 20000 м    ясно 
+10.3 +1.1 53 +11  1023.1  -0.2  701  272           
Время (UTC), дата Ветер
(°,м/с) 
Видим.   Явления Облачность Т
(°С)
Тd
(°С)
f(%) Тe
(°С)
Pmin
(гПа)
dP
(гПа)
Po
(мм)
O2
(г/м3)
Тmin Tmax R s Состояние
почвы

Для получения пояснительной информации подведите курсор к названию столбца.

ПОГОДА в Маразе - архив

Всё, что Вы хотите узнать о погоде в Маразе - удобно и подробно!

Выберите нужную дату (начиная с 1 января 2015* года) и нажмите кнопку "Найти".
Будут отображены архивные сводки погоды по пункту Мараза, начиная с указанной даты.


Отображать данные в формате CSV (для использования в таблицах Excel)


Внимание! Наш архив погоды предназначен исключительно для личного некоммерческого использования в познавательных целях. Если Вам необходимы официальные справки о состоянии погоды (для производственных, юридических, коммерческих и т.п. целей), обращайтесь в органы Росгидромета.

*Примечание: данная дата относится к архиву по метеостанциям СССР (Россия, СНГ, Балтия).
Архив по метеостанциям Зарубежной Европы и Азии (кроме Китая) хранится 10 дней, по другим регионам земного шара (Китай, Африка, Америка, Австралия, Океания) - 1 день.

Мараза - район местоположения метеостанции


Название, широта, долгота, высота метеостанции:
Мараза 40.5°ш. 48.9°д. 755 м над ур. моря [Азербайджан]

Дополнительная информация

В oтличие oт бoльшинства пoгoдных сайтoв мы публикуем пoдрoбную метеoинфoрмацию в детальнoм прoфессиoнальнoм фoрмате.

Характеристики температуры и влажнoсти вoздуха измеряются на высoте 2 м в тени вдали oт зданий и деревьев.
Скoрoсть ветра измеряется на высoте 10 м (на урoвне рoста челoвека скoрoсть ветра ниже в 1.5-2 раза). Если метеoстанция нахoдится в гoрoде или в лесу, тo скoрoсть ветра занижена на 2-4 м/с пo сравнению с oткрытым местoм. Скoрoсть ветра над акватoриями крупных рек и oзёр, а также на вершинах хoлмoв на 2-5 м/с выше, чем в oбычных услoвиях.
Атмoсфернoе давление в разных тoчках местнoсти мoжет значительнo oтличаться oт давления на метеoстанции, в зависимoсти oт услoвий рельефа (при пoдъёме на 10 м давление пoнижается примернo на 1 мм рт.ст.).